Flag for Canada Weather past 2 weeks in Kamloops, British Columbia, Canada

Now
59 °F

Partly sunny.


Feels Like: 60 °F
Forecast: 53 / 60 °F
Wind: 3 mph from North

Location: Kamloops

Current Time: Sep 2, 2014 at 11:53:58 AM

Latest Report: Sep 2, 2014 at 11:00 AM


Visibility: 40 mi

Pressure: 29.82 "Hg

Humidity: 77%

Dew point: 52 °F

Location of KamloopsLocation

Historic Weather in Kamloops — Graph

°F

Kamloops temperature yesterday

Maximum temperature yesterday: 79 °F (at 5:00 PM)
Minimum temperature yesterday: 48 °F (at 6:00 AM)
Average temperature yesterday: 64 °F

Past Weeks' High & Low Weather Summary

 TemperatureHumidityPressure
High90 °F (Aug 26, 4:00 PM)94% (Aug 20, 7:00 AM)30.24 "Hg (Aug 20, 7:00 AM)
Low48 °F (Sep 1, 6:00 AM)18% (Aug 23, 3:00 PM)29.63 "Hg (Aug 19, 7:00 PM)
Average67 °F59%29.92 "Hg
* Reported Aug 18 10:00 AM — Sep 2 10:00 AM, Kamloops, Weather by CustomWeather, © 2014

Note: Actual official high and low records may vary slightly from our data, if they occured in-between our weather recording intervals... More about our weather records

Advertising

Kamloops weather history for previous 24 hours

 ConditionsComfort  
Time TempWeatherWind HumidityBarometerVisibility
10:00 AM
Sep 2
57 °FBroken clouds.3 mph77%29.84 "Hg40 mi
9:00 AM57 °FLight rain. Overcast.3 mph82%29.85 "Hg30 mi
8:00 AM57 °FLight rain. Overcast.6 mph82%29.85 "Hg30 mi
7:00 AM57 °FMostly cloudy.5 mph77%29.85 "Hg40 mi
6:00 AM57 °FMostly cloudy.No wind67%29.84 "Hg40 mi
5:00 AM57 °FMostly cloudy.2 mph67%29.85 "Hg40 mi
4:00 AM57 °FMostly cloudy.No wind72%29.85 "Hg40 mi
3:00 AM59 °FMostly cloudy.No wind63%29.85 "Hg40 mi
2:00 AM59 °FMostly cloudy.2 mph63%29.84 "Hg40 mi
1:00 AM61 °FOvercast.No wind55%29.84 "Hg40 mi
12:00 AM61 °FOvercast.3 mph59%29.85 "Hg40 mi
11:00 PM
Sep 1
64 °FOvercast.2 mph46%29.85 "Hg40 mi
10:00 PM64 °FOvercast.6 mph46%29.85 "Hg40 mi
9:00 PM68 °FPassing clouds.6 mph40%29.83 "Hg40 mi
8:00 PM70 °FPartly sunny.9 mph38%29.82 "Hg40 mi
7:00 PM72 °FPartly sunny.21 mph36%29.80 "Hg40 mi
6:00 PM73 °FScattered clouds.23 mph33%29.81 "Hg40 mi
5:00 PM79 °FScattered clouds.7 mph28%29.80 "Hg40 mi
4:00 PM73 °FScattered clouds.2 mph38%29.83 "Hg40 mi
3:00 PM73 °FScattered clouds.3 mph38%29.84 "Hg40 mi
2:00 PM73 °FScattered clouds.No wind38%29.86 "Hg40 mi
1:00 PM72 °FScattered clouds.3 mph41%29.88 "Hg40 mi
12:00 PM72 °FScattered clouds.6 mph41%29.91 "Hg40 mi
11:00 AM64 °FScattered clouds.6 mph49%29.95 "Hg40 mi
Weather by CustomWeather, © 2014

See weather overviewHow to use our weather pages